Regional Weather Roundup
Issued by NWS

Home | Current Version | Previous Version | Text Only | Print | Product List | Glossary Off
Versions: 1 2 3 4 5 6 7 8 9 10 11 12 13 14 15 16 17 18 19 20 21 22 23 24 25 26 27

000
ASUS45 KSLC 282110
RWRUT

UTAH REGIONAL WEATHER ROUNDUP
NATIONAL WEATHER SERVICE SALT LAKE CITY UT
300 PM MDT FRI APR 28 2017

UTZ001>011-023>025-282200-

NORTHERN UTAH

CITY           SKY/WX    TMP DP  RH WIND       PRES   REMARKS
BRIGHAM CITY   CLOUDY    43  32  65 N22       29.94R
HILL AFB       PTSUNNY   38  36  90 N13       29.93S WCI  30
LOGAN          LGT RAIN  39  36  89 N10       29.94R WCI  32
OGDEN          CLOUDY    42  35  76 NW16      29.92F
SALT LAKE CITY LGT RAIN  41  36  82 NW20      29.94R
TOOELE VALLEY  CLOUDY    41  34  75 NW16G29   29.97R
WENDOVER       CLOUDY    51  18  27 N20G28    29.97R
HEBER CITY     PTSUNNY   39  25  56 CALM      29.85F
WEST JORDAN    CLOUDY    41  41 100 NW22G28   29.94S

$$

UTZ011>015-024>027-282200-

CENTRAL/NORTHEAST UTAH

CITY           SKY/WX    TMP DP  RH WIND       PRES   REMARKS
PROVO AIRPORT  LGT RAIN  39  36  89 NW24      29.94R WCI  28
MOAB/CANYONLAN CLOUDY    56  14  19 NW14G21   29.73S
DELTA          CLOUDY    46  19  34 NW24      29.90S
PRICE            N/A     46  18  32 N22G30    29.79R
ROOSEVELT      CLOUDY    46  21  36 N8        29.81R
VERNAL         CLOUDY    42  28  57 N5        29.81R

$$

UTZ013>016-019>022-027-282200-

SOUTHERN UTAH

CITY           SKY/WX    TMP DP  RH WIND       PRES   REMARKS
BRYCE CANYON     N/A     32  24  72 W22G31    29.84F WCI  19
CEDAR CITY     PTSUNNY   46  22  38 N29G37    29.89R
MILFORD          N/A     47  21  35 N20G26    29.91S
ST GEORGE        N/A     61  17  18 NE17G26   29.84F
HANKSVILLE       N/A     54  10  17 NW16G24   29.79S
BLANDING       CLOUDY    42  19  40 NE14G21   29.81S

$$

REGIONAL REPORTS     COLORADO/ARIZONA

CITY           SKY/WX    TMP DP  RH WIND       PRES   REMARKS
CRAIG, CO      CLOUDY    41  30  65 N16       29.78R
GRAND JUNCTION SUNNY     52  14  22 NW10G22   29.74S
RIFLE, CO      CLOUDY    39  29  67 SW23      29.78R WCI  28
MONTROSE, CO   CLOUDY    46  10  23 N6        29.74S
CORTEZ, CO     CLOUDY    41  28  60 N14       29.75R
COLORADO CITY    N/A     55  10  16 NW18G26   29.87R
PAGE, AZ         N/A     56   7  14 N10G17    29.77S
GRAND CANYON     N/A     47   5  18 NW12G23   29.81S
KINGMAN, AZ      N/A     64   6  10 N31G43    29.82F
FLAGSTAFF, AZ    N/A     51   1  13 NW16G26   29.76S

$$

REGIONAL REPORTS    NEVADA/IDAHO/WYOMING

CITY           SKY/WX    TMP DP  RH WIND       PRES   REMARKS
LAS VEGAS, NV    N/A     71   1   6 NW21G30   29.83F
ELY, NY        PTSUNNY   41  18  39 NW18G30   29.97S
ELKO, NV       PTSUNNY   48  18  30 N12G24    30.04S
POCATELLO, ID  CLOUDY    45  30  55 NW10      29.98R
BURLEY, ID       N/A     49  23  36 W9G22     29.98S
FORT BRIDGER,  CLOUDY    37  33  87 NW13G22   29.85R WCI  28
EVANSTON, WY   LGT SNOW  32  29  88 NW16      29.84S VSB 1   WCI  21
ROCK SPRINGS,  CLOUDY    34  27  75 NE20      29.84R WCI  23
KEMMERER, WY   LGT SNOW  32  28  86 N16       29.84R WCI  21

$$




USA.gov is the U.S. government's official web portal to all federal, state and local government web resources and services.